Lapse_Rate
2.4 2.2 2.1 1.9 1.8 1.7 1.4 1.0 0.7 0.5 0.4 0.6 0.6 0.6 0.7 0.9 0.7 0.9 1.3 1.5 1.4 1.6
1.9 2.3 2.3 2.5 2.6 2.1 1.8 1.6 1.5 1.5 1.5 1.4 1.2 1.1 1.2 1.5 1.3 1.4 1.5 1.7 1.7 1.7
2.0 2.4 2.7 2.9 2.5 2.6 2.4 2.2 2.2 2.3 2.4 2.1 2.0 1.9 2.0 1.9 1.8 2.4 2.0 2.0 2.4 2.3
2.0 2.4 2.9 2.6 2.8 2.8 2.6 2.8 2.8 2.8 2.7 2.7 2.6 2.5 2.6 2.6 2.5 2.7 2.6 2.5 2.8 2.5
2.2 2.5 2.6 2.9 2.7 2.9 3.2 3.3 3.2 3.2 3.2 3.1 3.1 3.0 3.3 3.5 3.2 3.3 3.2 3.1 3.3 3.2
2.1 2.3 2.4 2.6 2.9 2.7 3.2 3.3 3.5 3.8 4.0 3.8 3.5 3.4 3.4 3.5 3.7 3.8 3.8 3.8 4.0 3.8
1.9 2.1 2.4 2.6 2.8 2.8 2.7 3.2 3.6 4.0 4.0 3.8 3.7 3.7 4.2 4.4 4.3 4.2 4.0 3.9 3.9 3.9
2.5 2.2 2.2 2.5 2.5 2.6 3.2 3.1 3.7 3.6 3.6 3.7 4.2 4.8 5.0 4.8 4.7 4.8 4.6 4.4 4.5 4.2
2.7 2.9 2.5 2.5 2.5 3.0 3.0 2.8 2.6 3.4 3.6 4.3 5.4 6.6 6.2 5.1 4.2 4.5 4.2 4.5 4.4 4.4
3.2 3.2 3.3 3.4 3.2 2.6 2.6 3.0 2.9 2.7 3.5 4.3 5.3 7.3 7.7 7.2 5.2 4.7 4.5 4.6 5.0 5.1
3.3 3.4 3.4 3.6 3.7 3.0 3.0 2.9 3.2 3.3 3.4 4.1 5.2 7.0 7.3 7.3 5.3 4.9 4.9 4.9 4.8 4.8
3.3 3.4 3.7 3.7 3.6 3.8 3.4 2.7 2.6 3.4 2.7 3.4 3.7 6.3 6.9 6.8 5.5 5.7 5.4 5.1 5.0 4.7
3.3 3.6 3.8 3.8 3.5 3.7 3.3 3.7 4.7 4.2 3.1 4.3 3.8 5.6 6.5 6.8 5.9 5.4 6.0 5.9 5.5 5.9
3.6 3.6 4.2 3.8 3.9 3.9 3.9 4.1 3.5 3.8 2.6 2.2 3.1 3.9 6.1 6.8 6.4 6.1 6.2 6.2 6.1 6.0
Wind_Speed
8 6 6 7 6 5 5 5 10 11 12 13 13 12 12 12 11 11 8 9 7 5
8 9 8 10 9 5 10 11 12 12 13 12 13 12 12 10 9 11 10 8 8 6
9 9 9 9 10 9 11 13 13 13 13 12 12 12 12 10 10 9 8 8 7 6
7 8 8 8 9 11 14 14 13 13 12 12 11 11 11 10 9 8 7 8 7 7
8 8 9 9 9 13 12 13 14 13 12 11 10 10 9 7 7 7 7 6 7 6
8 8 8 9 10 12 12 12 12 11 9 8 9 9 8 9 7 6 6 5 5 5
7 8 8 8 9 11 11 10 10 9 8 8 9 8 8 8 7 7 6 6 6 5
8 8 8 8 7 10 11 9 10 9 8 8 8 7 8 7 6 5 4 4 3 2
9 10 8 8 8 8 6 7 7 5 5 5 5 7 8 7 4 4 3 2 1 1
10 10 10 9 9 7 7 5 6 5 5 4 3 6 7 8 5 3 2 1 1 1
9 10 10 11 10 7 5 5 4 4 4 4 3 5 4 4 4 3 2 2 3 4
8 9 9 9 9 7 7 5 4 4 5 4 2 3 3 4 4 2 2 3 5 6
7 8 9 9 8 5 5 6 5 5 5 6 4 2 2 2 2 2 3 4 7 10
6 6 7 7 4 6 6 6 4 5 3 3 4 2 2 4 3 3 4 5 5 9
Wind_Direction
120 124 122 122 124 115 113 113 117 108 106 107 105 102 104 100 99 102 99 95 87 86
120 125 126 118 113 111 112 116 112 109 106 104 104 105 102 99 98 96 96 94 93 87
124 123 123 122 122 122 117 121 119 114 110 105 105 106 103 100 101 100 94 95 94 85
121 122 122 120 125 127 127 128 122 119 115 113 111 109 105 103 105 101 100 97 97 91
119 119 118 123 123 130 128 129 129 126 122 120 116 116 115 111 111 109 105 103 100 97
122 124 123 126 128 125 128 126 125 125 125 125 124 121 119 121 122 117 114 111 105 102
132 132 131 129 127 128 127 125 124 124 128 125 124 126 125 122 118 118 118 120 120 123
130 124 125 127 126 127 132 130 132 129 126 127 127 129 127 125 123 121 115 103 101 106
133 133 128 128 127 125 121 127 122 130 128 128 129 147 141 140 142 139 137 139 119 86
140 139 140 136 133 132 137 133 128 125 126 126 129 161 160 170 157 161 164 183 231 262
140 141 144 148 148 138 138 132 134 136 134 136 146 139 137 121 125 150 173 215 242 254
145 143 148 146 146 145 147 147 140 144 141 143 148 151 151 133 143 170 211 240 246 250
146 152 158 151 152 152 151 147 149 147 157 169 154 174 192 184 177 224 253 250 253 261
141 143 145 136 139 140 144 148 150 141 146 149 170 198 238 250 226 242 256 266 268 263